ADAK NAS/MITCHELL, AK current weather conditions

sailwx.info

Wind from 260 at 8 knots

Air temperature 8.0° C
Visibility: greater than 8.7 NM
Dewpoint 7.0° C

Last reported at 2020-Jul-05 06:10 UTC.
Time now 2020-Jul-05 06:58 UTC

Location: N 51°53' W 176°39'.
View on Google Maps.

See reports from other nearby stations

  
Tides and Currents Weather Stations Pressure Air Temp Water Temp Dewpoint Dewpoint Depression Visibility Wind Speed Wind Dir Waves Ship Positions
date/time (UTC)wind fromknots sea level pressurealtimeterstation pressurevisibilityair tempwater tempwave heightnotes
2020-Jul-05 06:10 260 8 8.7 8.0
2020-Jul-05 06:05 260 8 8.7 8.0
2020-Jul-05 06:00 250 8 8.7 8.0
2020-Jul-05 05:56 260 8 8.7 8.9
2020-Jul-05 05:55 250 9 8.7 9.0
2020-Jul-05 05:50 260 9 8.7 9.0
2020-Jul-05 05:45 260 10 8.7 9.0
2020-Jul-05 05:40 260 9 8.7 9.0
2020-Jul-05 05:35 240 10 8.7 9.0
2020-Jul-05 05:30 250 7 8.7 9.0
2020-Jul-05 05:25 260 8 8.7 9.0
2020-Jul-05 05:20 260 8 8.7 9.0
2020-Jul-05 05:15 260 8 8.7 9.0
2020-Jul-05 05:10 250 9 8.7 9.0
2020-Jul-05 05:07 260 7 8.7 9.0
2020-Jul-05 05:05 240 8 8.7 9.0
2020-Jul-05 05:00 260 7 8.7 9.0
2020-Jul-05 04:56 270 6 8.7 8.9
2020-Jul-05 04:55 270 7 8.7 9.0
2020-Jul-05 04:50 260 7 8.7 9.0
2020-Jul-05 04:45 260 8 8.7 9.0
2020-Jul-05 04:40 250 8 8.7 9.0
2020-Jul-05 04:35 260 8 8.7 9.0
2020-Jul-05 04:30 250 8 8.7 9.0
2020-Jul-05 04:25 240 9 8.7 9.0
2020-Jul-05 04:20 240 9 8.7 9.0
2020-Jul-05 04:15 240 9 8.7 9.0
2020-Jul-05 04:14 250 8 8.7 9.0
2020-Jul-05 04:10 240 9 8.710.0
2020-Jul-05 04:05 240 9 8.710.0
2020-Jul-05 04:00 240 8 8.710.0
2020-Jul-05 03:56 250 7 8.710.0
2020-Jul-05 03:55 240 9 8.710.0
2020-Jul-05 03:50 250 9 8.710.0
2020-Jul-05 03:45 250 8 8.710.0
2020-Jul-05 03:35 250 8 8.710.0
2020-Jul-05 03:30 250 7 8.710.0
2020-Jul-05 03:10 250 10 8.710.0
2020-Jul-05 03:05 240 10 8.7 9.0
2020-Jul-05 03:00 240 11 8.710.0
2020-Jul-05 02:56 240 11 8.7 9.4
2020-Jul-05 02:55 240 11 8.7 9.0
2020-Jul-05 02:50 240 13 8.7 9.0
2020-Jul-05 02:45 250 12 8.710.0
2020-Jul-05 02:40 260 11 8.710.0
2020-Jul-05 02:35 260 10 8.7 9.0
2020-Jul-05 02:30 260 13 7.8 9.0
2020-Jul-05 02:25 250 10 7.8 9.0
2020-Jul-05 02:20 260 10 7.8 9.0
2020-Jul-05 02:10 260 7 7.810.0
2020-Jul-05 02:05 250 8 8.710.0
2020-Jul-05 02:00 260 11 8.710.0
2020-Jul-05 01:56 250 9 8.710.0
2020-Jul-05 01:51 260 9 8.711.0
2020-Jul-05 01:50 260 11 8.711.0
2020-Jul-05 01:45 260 10 7.811.0
2020-Jul-05 01:40 240 11 7.810.0
2020-Jul-05 01:35 260 14 7.811.0
2020-Jul-05 01:30 250 14 7.811.0
2020-Jul-05 01:25 240 13 7.811.0
2020-Jul-05 01:20 240 13 8.711.0
2020-Jul-05 01:10 250 10 7.811.0
2020-Jul-05 01:05 250 12 7.811.0
2020-Jul-05 01:00 240 12 7.811.0
2020-Jul-05 00:56 250 12 7.810.6
2020-Jul-05 00:55 250 12 7.811.0
2020-Jul-05 00:50 250 14 7.011.0
2020-Jul-05 00:47 250 13 6.911.0
2020-Jul-05 00:45 240 14 7.811.0
2020-Jul-05 00:40 240 13 8.711.0
2020-Jul-05 00:35 250 14 8.711.0
2020-Jul-05 00:30 240 12 8.711.0
2020-Jul-05 00:25 240 9 8.711.0
2020-Jul-05 00:20 250 10 8.710.0
2020-Jul-05 00:15 240 10 7.810.0
2020-Jul-05 00:10 250 11 7.010.0
2020-Jul-05 00:05 250 13 7.0 9.0
2020-Jul-05 00:00 240 13 6.1 9.0
2020-Jul-04 23:56 250 12 5.2 9.4 Mist.
2020-Jul-04 23:55 240 11 6.1 9.0
2020-Jul-04 23:35 240 12 7.0 9.0
2020-Jul-04 23:33 240 13 6.9 9.0
2020-Jul-04 23:30 240 12 7.0 9.0
2020-Jul-04 23:25 240 12 7.0 9.0
2020-Jul-04 23:20 240 13 7.0 9.0
2020-Jul-04 23:15 240 14 7.010.0
2020-Jul-04 23:10 240 12 7.8 9.0
2020-Jul-04 23:05 240 13 7.8 9.0
2020-Jul-04 23:00 240 12 7.8 9.0
2020-Jul-04 22:56 260 13 7.8 9.4
2020-Jul-04 22:55 250 12 7.8 9.0
2020-Jul-04 22:50 250 12 7.0 9.0
2020-Jul-04 22:45 240 14 7.0 9.0
2020-Jul-04 22:40 260 9 7.0 9.0
2020-Jul-04 22:35 250 10 7.0 9.0
2020-Jul-04 22:30 250 9 7.0 9.0
2020-Jul-04 22:25 260 11 7.0 9.0
2020-Jul-04 22:20 240 10 7.8 9.0
2020-Jul-04 22:15 240 11 7.8 9.0
2020-Jul-04 22:13 240 11 7.8 9.0
2020-Jul-04 22:10 250 11 7.8 9.0
2020-Jul-04 22:05 240 10 7.0 9.0
2020-Jul-04 22:00 240 12 7.0 9.0
2020-Jul-04 21:56 250 8 6.9 8.9
2020-Jul-04 21:55 250 9 7.0 9.0
2020-Jul-04 21:50 240 10 6.1 8.0
2020-Jul-04 21:45 240 10 6.1 8.0
2020-Jul-04 21:40 250 11 6.1 8.0
2020-Jul-04 21:35 240 10 7.0 8.0
2020-Jul-04 21:30 250 10 6.1 8.0
2020-Jul-04 21:25 240 10 6.1 8.0
2020-Jul-04 21:20 250 10 5.2 8.0 Mist.
2020-Jul-04 21:15 240 10 4.3 8.0 Mist.
2020-Jul-04 21:10 250 9 3.5 8.0 Mist.
2020-Jul-04 21:05 250 9 3.0 8.0 Mist.
2020-Jul-04 21:00 260 8 3.0 8.0 Mist.
2020-Jul-04 20:56 250 7 3.5 7.8 Mist.
2020-Jul-04 20:55 250 8 3.5 8.0 Mist.
2020-Jul-04 20:50 250 7 4.3 8.0 Mist.
2020-Jul-04 20:45 240 8 4.3 8.0 Mist.
2020-Jul-04 20:37 250 9 4.3 8.0 Mist.
2020-Jul-04 20:35 250 9 4.3 8.0 Mist.
2020-Jul-04 20:30 250 9 3.5 8.0 Mist.
2020-Jul-04 20:22 250 8 3.5 8.0 Mist.
2020-Jul-04 20:20 240 9 3.5 8.0 Mist.
2020-Jul-04 20:15 250 8 3.0 8.0 Mist.
2020-Jul-04 20:10 250 10 3.5 8.0 Mist.
2020-Jul-04 20:05 250 11 3.5 8.0 Mist.
2020-Jul-04 19:56 250 11 3.5 7.8 Mist.
2020-Jul-04 19:55 250 11 3.5 8.0 Mist.
2020-Jul-04 19:50 250 11 3.5 8.0 Mist.
2020-Jul-04 19:46 250 9 2.6 8.0 Mist.
2020-Jul-04 19:45 250 11 2.6 8.0 Mist.
2020-Jul-04 19:41 240 9 2.2 8.0 Mist.
2020-Jul-04 19:40 240 10 2.2 8.0 Mist.
2020-Jul-04 19:35 240 9 2.2 8.0 Mist.
2020-Jul-04 19:30 250 8 3.5 8.0 Mist.
2020-Jul-04 19:28 250 8 3.5 8.0 Mist.
2020-Jul-04 19:25 250 8 3.5 8.0 Mist.
2020-Jul-04 19:20 240 9 2.2 8.0 Mist.
2020-Jul-04 19:18 240 8 2.2 8.0 Mist.
2020-Jul-04 19:15 250 10 2.2 8.0 Mist.
2020-Jul-04 19:10 250 11 2.6 8.0 Mist.
2020-Jul-04 19:05 250 14 3.5 8.0 Mist.
2020-Jul-04 18:56 250 14 6.9 7.8
2020-Jul-04 18:55 250 16 7.8 8.0
2020-Jul-04 18:50 250 15 7.8 8.0
2020-Jul-04 18:45 250 14 8.7 8.0
2020-Jul-04 18:40 240 13 8.7 8.0
2020-Jul-04 18:35 240 11 8.7 8.0
2020-Jul-04 18:30 240 12 8.7 8.0
2020-Jul-04 18:20 240 14 8.7 8.0
2020-Jul-04 18:15 250 16 8.7 8.0
2020-Jul-04 18:10 250 14 8.7 8.0
2020-Jul-04 18:00 240 12 8.7 8.0
2020-Jul-04 17:56 240 11 8.7 7.8
2020-Jul-04 17:55 230 11 8.7 8.0
2020-Jul-04 17:50 230 10 8.7 8.0
2020-Jul-04 17:45 240 14 8.7 8.0
2020-Jul-04 17:40 240 12 8.7 8.0
2020-Jul-04 17:35 240 14 8.7 8.0
2020-Jul-04 17:30 250 14 8.7 8.0
2020-Jul-04 17:25 250 15 8.7 8.0
2020-Jul-04 17:20 240 18 8.7 8.0
2020-Jul-04 17:15 230 14 8.7 8.0
2020-Jul-04 17:10 210 13 8.7 8.0
2020-Jul-04 17:05 210 11 8.7 8.0
2020-Jul-04 17:00 220 13 8.7 8.0
2020-Jul-04 16:56 230 11 8.7 8.3
2020-Jul-04 16:50 240 10 8.7 9.0
2020-Jul-04 16:41 290 5 8.7 9.0
2020-Jul-04 16:30 270 15 8.7 9.0
2020-Jul-04 16:20 230 8 8.7 8.0
2020-Jul-04 16:15 240 7 8.7 8.0
2020-Jul-04 16:10 100 5 8.7 8.0
2020-Jul-04 16:05 060 8 8.7 8.0
2020-Jul-04 16:00 040 5 8.7 8.0
2020-Jul-04 15:56 040 8 gusting 14 8.7 8.3
2020-Jul-04 15:55 040 8 8.7 8.0
2020-Jul-04 15:50 220 9 gusting 15 8.7 9.0
2020-Jul-04 15:45 350 3 8.7 9.0
2020-Jul-04 15:40 300 5 8.7 8.0
2020-Jul-04 15:35 290 11 8.7 8.0
2020-Jul-04 15:25 230 13 8.7 8.0
2020-Jul-04 15:20 220 7 8.7 8.0
2020-Jul-04 15:15 240 7 7.8 8.0
2020-Jul-04 15:10 250 12 7.0 8.0
2020-Jul-04 15:05 260 13 7.0 8.0
2020-Jul-04 15:00 250 18 7.8 8.0
2020-Jul-04 14:56 250 13 8.7 8.3
2020-Jul-04 14:55 250 12 8.7 8.0
2020-Jul-04 14:50 270 15 8.7 8.0
2020-Jul-04 14:45 270 16 8.7 8.0
2020-Jul-04 14:40 270 15 8.7 8.0
2020-Jul-04 14:38 270 17 gusting 20 8.7 8.0
2020-Jul-04 14:35 270 13 8.7 8.0
2020-Jul-04 14:30 290 12 8.7 8.0
2020-Jul-04 14:20 260 17 8.7 8.0
2020-Jul-04 14:17 230 6 8.7 8.0
2020-Jul-04 14:15 220 7 8.7 8.0
2020-Jul-04 14:10 210 6 8.7 8.0
2020-Jul-04 14:05 080 5 8.7 8.0
2020-Jul-04 14:00 110 4 8.7 7.0
2020-Jul-04 13:56 120 2 8.7 7.2
2020-Jul-04 13:55 120 3 8.7 7.0
2020-Jul-04 13:50 100 4 8.7 8.0
2020-Jul-04 13:45 120 5 8.7 8.0
2020-Jul-04 13:40 130 6 8.7 8.0
2020-Jul-04 13:35 120 5 8.7 8.0
2020-Jul-04 13:30 100 5 8.7 8.0
2020-Jul-04 13:25 100 7 8.7 8.0
2020-Jul-04 13:20 090 7 8.7 8.0
2020-Jul-04 13:10 040 5 8.7 7.0
2020-Jul-04 13:05 050 4 8.7 8.0
2020-Jul-04 13:04 050 4 8.7 8.0
2020-Jul-04 13:00 070 6 8.7 8.0
2020-Jul-04 12:56 050 5 8.7 7.8
2020-Jul-04 12:55 050 5 8.7 8.0
2020-Jul-04 12:50 070 7 8.7 8.0
2020-Jul-04 12:45 090 8 8.7 8.0
2020-Jul-04 12:35 140 4 8.7 8.0
2020-Jul-04 12:30 210 5 8.7 8.0
2020-Jul-04 12:25 230 7 8.7 8.0
2020-Jul-04 12:20 250 9 8.7 7.0
2020-Jul-04 12:15 230 6 8.7 7.0
2020-Jul-04 12:10 250 10 8.7 7.0
2020-Jul-04 12:05 260 10 7.8 7.0
2020-Jul-04 12:00 250 14 6.1 7.0
2020-Jul-04 11:56 240 13 gusting 20 4.3 7.2 Mist.
2020-Jul-04 11:55 240 13 3.5 7.0 Mist.
2020-Jul-04 11:50 240 14 3.5 7.0 Mist.
2020-Jul-04 11:45 240 13 3.5 8.0 Mist.
2020-Jul-04 11:41 240 14 2.6 8.0 Mist.
2020-Jul-04 11:35 230 10 3.0 8.0 Mist.
2020-Jul-04 11:25 250 13 2.6 8.0 Mist.
2020-Jul-04 11:20 250 10 2.6 8.0 Mist.
2020-Jul-04 11:15 240 9 2.6 8.0 Mist.
2020-Jul-04 11:10 250 6 2.6 8.0 Mist.
2020-Jul-04 11:05 260 7 2.6 8.0 Mist.
2020-Jul-04 11:00 250 9 3.5 8.0 Mist.
2020-Jul-04 10:56 250 9 3.5 8.3 Mist.
2020-Jul-04 10:55 250 11 3.5 8.0 Mist.
2020-Jul-04 10:51 250 13 3.5 8.0 Mist.
2020-Jul-04 10:50 250 13 3.5 8.0 Mist.
2020-Jul-04 10:45 250 15 3.5 8.0 Mist.
2020-Jul-04 10:40 250 15 3.5 8.0 Mist.
2020-Jul-04 10:37 240 13 4.3 8.0 Mist.
2020-Jul-04 10:35 240 14 4.3 8.0 Mist.
2020-Jul-04 10:30 250 13 4.3 8.0 Mist.
2020-Jul-04 10:25 250 16 4.3 8.0 Mist.
2020-Jul-04 10:20 250 16 4.3 8.0 Mist.
2020-Jul-04 10:15 250 16 4.3 8.0 Mist.
2020-Jul-04 10:10 240 12 5.2 8.0 Mist.
2020-Jul-04 10:05 240 10 7.8 8.0
2020-Jul-04 10:00 230 11 8.7 9.0
2020-Jul-04 09:56 230 11 8.7 8.9
2020-Jul-04 09:55 230 11 8.7 9.0
2020-Jul-04 09:49 210 6 gusting 15 8.7 9.0
2020-Jul-04 09:45 220 10 8.7 9.0
2020-Jul-04 09:40 220 10 8.7 9.0
2020-Jul-04 09:37 230 7 8.7 9.0
2020-Jul-04 09:35 230 9 8.7 9.0
2020-Jul-04 09:30 210 7 8.7 9.0
2020-Jul-04 09:25 190 7 8.7 9.0 Light rain.
2020-Jul-04 09:20 190 9 8.7 9.0 Light rain.
2020-Jul-04 09:15 210 9 8.7 9.0 Light rain.
2020-Jul-04 09:10 220 8 8.7 9.0 Light rain.
2020-Jul-04 09:05 220 10 7.0 9.0 Light rain.
2020-Jul-04 08:56 210 8 4.3 8.9 Rain. Mist.
2020-Jul-04 08:55 210 9 4.3 9.0 Heavy rain. Mist.
2020-Jul-04 08:51 200 8 5.2 9.0 Heavy rain. Mist.
2020-Jul-04 08:50 200 8 5.2 9.0 Heavy rain. Mist.
2020-Jul-04 08:45 200 10 7.0 9.0 Light rain.
2020-Jul-04 08:40 190 12 7.0 9.0 Light rain.
2020-Jul-04 08:35 190 12 4.3 9.0 Light rain. Mist.
2020-Jul-04 08:30 190 14 5.2 9.0 Light rain. Mist.
2020-Jul-04 08:25 180 13 7.0 9.0 Light rain.
2020-Jul-04 08:20 190 14 6.1 9.0 Light rain.
2020-Jul-04 08:05 190 11 8.7 9.0
2020-Jul-04 08:00 190 13 8.7 9.0
2020-Jul-04 07:56 200 9 gusting 18 8.710.0
2020-Jul-04 07:50 190 12 8.710.0
2020-Jul-04 07:45 200 12 8.710.0 Light rain.
2020-Jul-04 07:40 200 13 gusting 18 6.910.0 Light rain.
2020-Jul-04 07:35 200 9 4.310.0 Light rain. Mist.
2020-Jul-04 07:30 200 11 3.510.0 Light rain. Mist.
2020-Jul-04 07:25 210 9 3.510.0 Light rain. Mist.
2020-Jul-04 07:20 200 12 gusting 17 4.310.0 Light rain. Mist.
2020-Jul-04 07:15 190 16 4.310.0 Light rain. Mist.
2020-Jul-04 07:11 180 18 gusting 24 2.610.0 Light rain. Mist.
2020-Jul-04 07:10 180 18 2.610.0 Light rain. Mist.
2020-Jul-04 07:05 180 19 2.210.0 Light rain. Mist.
2020-Jul-04 07:03 180 18 2.210.0 Light rain. Mist.
2020-Jul-04 07:00 170 16 1.710.0 Light rain. Mist.
2020-Jul-04 06:56 190 13 2.610.0 Light rain. Mist.
2020-Jul-04 06:55 190 14 2.610.0 Light rain. Mist.
2020-Jul-04 06:50 200 14 4.310.0 Light rain. Mist.
2020-Jul-04 06:45 200 12 4.310.0 Light rain. Mist.
2020-Jul-04 06:40 210 11 4.310.0 Light rain. Mist.
2020-Jul-04 06:35 200 10 6.110.0 Light rain.
2020-Jul-04 06:30 210 13 8.710.0 Light rain.
2020-Jul-04 06:25 220 13 7.810.0 Light rain.
2020-Jul-04 06:20 200 13 6.110.0 Light rain.
2020-Jul-04 06:10 220 7 7.0 9.0 Light rain.
2020-Jul-04 06:00 160 4 7.0 9.0 Light rain.
2020-Jul-04 05:56 150 5 7.8 9.4 Light rain.
2020-Jul-04 05:55 160 6 7.8 9.0 Light rain.
2020-Jul-04 05:50 170 7 8.710.0 Light rain.
2020-Jul-04 05:45 190 13 8.711.0 Light rain.
2020-Jul-04 05:40 220 13 8.711.0 Light rain.
2020-Jul-04 05:35 200 11 8.710.0 Light rain.
2020-Jul-04 05:30 210 7 7.811.0 Light rain.
2020-Jul-04 05:25 200 8 8.711.0 Light rain.
2020-Jul-04 05:20 210 6 8.711.0 Light rain.
2020-Jul-04 05:10 210 12 7.811.0 Light rain.
2020-Jul-04 05:07 210 12 gusting 19 7.811.0 Light rain.
2020-Jul-04 05:00 210 11 8.711.0 Light rain.
2020-Jul-04 04:56 220 12 gusting 19 6.110.6 Light rain.
2020-Jul-04 04:50 220 12 5.211.0 Light rain. Mist.
2020-Jul-04 04:45 210 11 4.311.0 Light rain. Mist.
2020-Jul-04 04:40 210 15 5.211.0 Light rain. Mist.
2020-Jul-04 04:35 210 10 7.011.0 Light rain.
2020-Jul-04 04:25 190 14 4.311.0 Light rain. Mist.
2020-Jul-04 04:24 200 13 gusting 21 4.311.0 Light rain. Mist.
2020-Jul-04 04:20 190 18 5.211.0 Light rain. Mist.
2020-Jul-04 04:15 180 17 gusting 22 4.311.0 Light rain. Mist.
2020-Jul-04 04:10 190 15 5.211.0 Light rain. Mist.
2020-Jul-04 04:05 180 13 5.211.0 Light rain. Mist.
2020-Jul-04 04:00 180 12 gusting 19 6.111.0 Light rain.
2020-Jul-04 03:56 200 15 gusting 20 6.110.6 Light rain.
2020-Jul-04 03:55 200 16 6.111.0 Light rain.
2020-Jul-04 03:50 180 10 6.111.0
2020-Jul-04 03:45 200 19 8.711.0 Light rain.
2020-Jul-04 03:36 190 9 5.211.0 Light rain. Mist.
2020-Jul-04 03:35 180 10 4.311.0 Light rain. Mist.
2020-Jul-04 03:30 180 15 3.511.0 Rain. Mist.
2020-Jul-04 03:29 190 13 gusting 20 3.511.0 Rain. Mist.
2020-Jul-04 03:25 180 14 4.311.0 Light rain. Mist.
2020-Jul-04 03:20 170 12 4.310.0 Light rain. Mist.
2020-Jul-04 03:15 150 11 4.311.0 Light rain. Mist.
2020-Jul-04 03:10 180 13 4.311.0 Light rain. Mist.
2020-Jul-04 03:09 170 13 gusting 20 4.311.0 Light rain. Mist.
2020-Jul-04 03:05 180 14 3.011.0 Light rain. Mist.
2020-Jul-04 03:00 180 12 2.210.0 Light rain. Mist.
2020-Jul-04 02:56 180 6 gusting 17 1.710.0 Light rain. Mist.
2020-Jul-04 02:55 180 5 1.710.0 Light rain. Mist.
2020-Jul-04 02:50 190 12 1.310.0 Light rain. Mist.
2020-Jul-04 02:45 170 9 0.910.0 Light rain. Mist.
2020-Jul-04 02:40 190 12 1.111.0 Light rain. Mist.
2020-Jul-04 02:37 190 14 gusting 18 1.510.0 Mist.
2020-Jul-04 02:35 180 15 2.210.0 Light rain. Mist.
2020-Jul-04 02:30 160 7 3.510.0 Light rain. Mist.
2020-Jul-04 02:26 180 6 3.5 9.0 Light rain. Mist.
2020-Jul-04 02:25 180 7 3.0 9.0 Light rain. Mist.
2020-Jul-04 02:20 160 6 2.6 9.0 Light rain. Mist.
2020-Jul-04 02:17 170 6 2.2 9.0 Light rain. Mist.
2020-Jul-04 02:15 170 7 1.7 9.0 Light rain. Mist.
2020-Jul-04 02:10 160 6 1.5 9.0 Light rain. Mist.
2020-Jul-04 02:06 160 5 1.5 9.0 Light rain. Mist.
2020-Jul-04 02:05 150 6 1.5 9.0 Light rain. Mist.
2020-Jul-04 02:00 170 9 1.3 9.0 Light rain. Mist.
2020-Jul-04 01:56 170 6 1.3 9.4 Light rain. Mist.
2020-Jul-04 01:50 170 5 1.1 9.0 Light rain. Mist.
2020-Jul-04 01:46 170 6 1.110.0 Light rain. Mist.
2020-Jul-04 01:45 190 9 0.910.0 Light rain. Mist.
2020-Jul-04 01:41 180 7 0.910.0 Light rain. Mist.
2020-Jul-04 01:40 180 8 0.910.0 Light rain. Mist.
2020-Jul-04 01:35 190 10 0.910.0 Light rain. Mist.
2020-Jul-04 01:30 200 12 gusting 17 0.910.0 Light rain. Mist.
2020-Jul-04 01:25 180 10 0.910.0 Mist.
2020-Jul-04 01:20 180 9 1.1 9.0 Mist.
2020-Jul-04 01:15 160 8 1.1 9.0 Mist.
2020-Jul-04 01:10 150 6 1.1 9.0 Mist.
2020-Jul-04 01:05 160 5 1.1 9.0 Mist.
2020-Jul-04 01:00 170 6 1.1 9.0 Mist.
2020-Jul-04 00:56 170 2 1.1 8.9 Mist.
2020-Jul-04 00:55 180 3 1.1 9.0 Mist.
2020-Jul-04 00:50 160 5 1.1 9.0 Mist.
2020-Jul-04 00:45 160 5 1.1 9.0 Mist.
2020-Jul-04 00:40 170 6 1.1 9.0 Mist.
2020-Jul-04 00:35 180 6 1.1 9.0 Mist.
2020-Jul-04 00:30 170 5 1.1 9.0 Mist.
2020-Jul-04 00:25 160 5 1.1 9.0 Mist.
2020-Jul-04 00:20 170 4 1.1 9.0 Mist.
2020-Jul-04 00:15 170 5 1.3 9.0 Mist.
2020-Jul-04 00:05 170 5 1.5 9.0 Mist.
2020-Jul-04 00:00 190 4 1.3 9.0 Mist.
2020-Jul-03 23:56 160 7 1.3 9.4 Mist.
2020-Jul-03 23:55 160 9 1.3 9.0 Mist.
2020-Jul-03 23:50 210 7 1.1 9.0 Mist.
2020-Jul-03 23:41 200 8 1.510.0 Mist.
2020-Jul-03 23:40 180 8 1.710.0 Mist.
2020-Jul-03 23:35 190 8 3.510.0 Mist.
2020-Jul-03 23:30 190 9 4.310.0 Mist.
2020-Jul-03 23:25 190 8 7.011.0
2020-Jul-03 23:20 200 11 7.811.0
2020-Jul-03 23:15 180 7 7.811.0
2020-Jul-03 23:10 190 9 7.810.0
2020-Jul-03 23:05 180 8 5.2 9.0 Mist.
2020-Jul-03 23:03 180 7 4.3 9.0 Mist.
2020-Jul-03 23:00 170 8 3.0 9.0 Mist.
2020-Jul-03 22:55 180 8 2.2 9.0 Mist.
2020-Jul-03 22:54 180 8 2.2 9.0 Mist.
2020-Jul-03 22:45 160 9 2.6 9.0 Mist.
2020-Jul-03 22:40 180 7 3.5 9.0 Mist.
2020-Jul-03 22:35 170 9 4.310.0 Mist.
2020-Jul-03 22:30 180 8 4.310.0 Mist.
2020-Jul-03 22:25 170 9 3.5 9.0 Mist.
2020-Jul-03 22:20 160 10 3.5 9.0 Mist.
2020-Jul-03 22:15 170 10 4.3 9.0 Mist.
2020-Jul-03 22:10 160 8 7.8 9.0
2020-Jul-03 22:05 160 9 8.7 9.0
2020-Jul-03 22:00 150 9 8.7 9.0
2020-Jul-03 21:56 150 8 8.7 9.4
2020-Jul-03 21:55 150 10 8.7 9.0
2020-Jul-03 21:50 160 10 8.7 9.0
2020-Jul-03 21:45 150 12 8.7 9.0
2020-Jul-03 21:35 150 12 8.7 9.0
2020-Jul-03 21:30 150 10 8.7 9.0
2020-Jul-03 21:25 160 11 8.7 9.0
2020-Jul-03 21:20 160 10 8.7 9.0
2020-Jul-03 21:19 160 9 8.7 9.0
2020-Jul-03 21:15 150 10 8.7 9.0
2020-Jul-03 21:10 140 6 8.7 9.0
2020-Jul-03 21:05 140 10 8.7 9.0
2020-Jul-03 21:00 150 9 8.7 9.0
2020-Jul-03 20:56 150 12 8.7 8.9
2020-Jul-03 20:55 140 11 gusting 16 8.7 9.0
2020-Jul-03 20:50 150 11 8.7 8.0
2020-Jul-03 20:45 150 12 8.7 8.0
2020-Jul-03 20:40 150 11 8.7 8.0
2020-Jul-03 20:35 150 11 8.7 9.0
2020-Jul-03 20:30 140 10 8.7 9.0
2020-Jul-03 20:25 150 11 8.7 8.0
2020-Jul-03 20:20 150 10 8.7 8.0
2020-Jul-03 20:15 150 12 8.7 8.0
2020-Jul-03 20:10 150 10 8.7 8.0
2020-Jul-03 20:05 160 10 8.7 8.0
2020-Jul-03 20:00 160 10 8.7 8.0
2020-Jul-03 19:56 160 11 8.7 8.3
2020-Jul-03 19:55 160 11 8.7 8.0
2020-Jul-03 19:50 160 9 8.7 8.0
2020-Jul-03 19:45 150 9 8.7 8.0
2020-Jul-03 19:40 160 9 8.7 8.0
2020-Jul-03 19:35 160 10 8.7 8.0
2020-Jul-03 19:25 160 11 6.1 8.0
2020-Jul-03 19:20 160 11 5.2 8.0 Mist.
2020-Jul-03 19:15 160 11 4.3 8.0 Mist.
2020-Jul-03 19:05 160 14 3.5 8.0 Mist.
2020-Jul-03 19:00 160 13 3.5 8.0 Mist.
2020-Jul-03 18:56 160 11 4.3 7.8 Mist.
2020-Jul-03 18:55 160 12 4.3 8.0 Mist.
2020-Jul-03 18:51 160 12 6.9 8.0
2020-Jul-03 18:50 160 11 7.8 8.0
2020-Jul-03 18:45 170 12 8.7 8.0
2020-Jul-03 18:40 180 14 8.7 8.0
2020-Jul-03 18:35 170 14 8.7 8.0
2020-Jul-03 18:30 180 15 8.7 8.0
2020-Jul-03 18:25 170 13 8.7 8.0
2020-Jul-03 18:20 170 13 8.7 8.0
2020-Jul-03 18:15 160 14 8.7 8.0
2020-Jul-03 18:10 160 14 8.7 7.0
2020-Jul-03 18:05 160 15 7.0 7.0
2020-Jul-03 18:00 160 12 6.1 7.0
2020-Jul-03 17:56 150 13 5.2 7.2 Mist.
2020-Jul-03 17:55 150 12 4.3 7.0 Mist.
2020-Jul-03 17:50 160 12 3.5 7.0 Mist.
2020-Jul-03 17:45 150 12 4.3 7.0 Mist.
2020-Jul-03 17:43 160 12 4.3 7.0 Mist.
2020-Jul-03 17:40 160 14 4.3 7.0 Mist.
2020-Jul-03 17:35 160 12 5.2 7.0 Mist.
2020-Jul-03 17:30 160 13 7.0 7.0
2020-Jul-03 17:25 160 12 7.8 7.0
2020-Jul-03 17:20 160 13 8.7 8.0
2020-Jul-03 17:15 170 11 8.7 8.0
2020-Jul-03 17:10 160 12 8.7 7.0
2020-Jul-03 17:05 160 13 8.7 7.0
2020-Jul-03 16:56 160 12 7.8 7.2
2020-Jul-03 16:55 150 12 7.0 7.0
2020-Jul-03 16:50 150 12 7.0 7.0
2020-Jul-03 16:45 150 14 6.1 7.0
2020-Jul-03 16:40 150 13 6.1 7.0
2020-Jul-03 16:35 140 12 7.0 7.0
2020-Jul-03 16:30 150 11 8.7 7.0
2020-Jul-03 16:25 140 11 8.7 7.0
2020-Jul-03 16:20 150 14 8.7 7.0
2020-Jul-03 16:15 150 14 7.8 7.0
2020-Jul-03 16:10 160 15 6.1 7.0
2020-Jul-03 16:05 150 15 4.3 7.0 Mist.
2020-Jul-03 16:00 160 15 4.3 7.0 Mist.
2020-Jul-03 15:56 160 15 6.1 7.2
2020-Jul-03 15:55 150 16 6.1 7.0
2020-Jul-03 15:50 150 11 7.0 7.0
2020-Jul-03 15:45 160 13 7.0 7.0
2020-Jul-03 15:40 140 13 7.8 7.0
2020-Jul-03 15:35 150 13 8.7 7.0
2020-Jul-03 15:30 140 13 8.7 7.0
2020-Jul-03 15:25 140 13 8.7 7.0
2020-Jul-03 15:20 140 14 8.7 7.0
2020-Jul-03 15:15 150 16 8.7 7.0
2020-Jul-03 15:10 160 14 8.7 7.0
2020-Jul-03 15:05 150 16 8.7 7.0
2020-Jul-03 15:00 150 14 7.8 7.0
2020-Jul-03 14:56 160 17 gusting 20 7.8 7.2
2020-Jul-03 14:55 160 17 8.7 7.0
2020-Jul-03 14:50 160 11 8.7 7.0
2020-Jul-03 14:45 140 8 8.7 7.0
2020-Jul-03 14:40 130 8 7.0 7.0
2020-Jul-03 14:35 120 8 5.2 7.0 Mist.
2020-Jul-03 14:30 110 13 5.2 7.0 Mist.
2020-Jul-03 14:25 100 10 gusting 15 6.1 7.0
2020-Jul-03 14:20 150 10 5.2 7.0 Mist.
2020-Jul-03 14:15 150 13 4.3 7.0 Mist.
2020-Jul-03 14:10 150 11 5.2 7.0 Mist.
2020-Jul-03 14:05 150 10 6.1 7.0
2020-Jul-03 14:00 150 12 7.0 7.0
2020-Jul-03 13:56 160 14 gusting 20 7.8 7.2
2020-Jul-03 13:55 160 15 7.8 7.0
2020-Jul-03 13:54 160 15 gusting 20 7.8 7.0
2020-Jul-03 13:50 170 13 8.7 8.0
2020-Jul-03 13:45 170 8 8.7 8.0
2020-Jul-03 13:40 140 4 5.2 8.0 Mist.
2020-Jul-03 13:35 130 9 4.3 7.0 Mist.
2020-Jul-03 13:30 120 8 6.1 7.0
2020-Jul-03 13:25 120 14 7.0 7.0
2020-Jul-03 13:20 100 10 7.8 7.0
2020-Jul-03 13:15 110 9 7.0 7.0
2020-Jul-03 13:10 110 10 6.1 7.0
2020-Jul-03 13:05 130 10 6.1 7.0
2020-Jul-03 13:00 100 12 4.3 7.0 Mist.
2020-Jul-03 12:56 110 11 gusting 14 4.3 7.2 Mist.
2020-Jul-03 12:55 110 10 gusting 15 5.2 7.0 Mist.
2020-Jul-03 12:50 120 11 7.0 7.0
2020-Jul-03 12:45 120 9 7.0 7.0
2020-Jul-03 12:40 130 11 6.1 7.0
2020-Jul-03 12:35 140 13 6.1 7.0
2020-Jul-03 12:25 160 7 6.1 7.0
2020-Jul-03 12:21 090 11 gusting 18 6.1 7.0
2020-Jul-03 12:20 100 9 7.0 7.0
2020-Jul-03 12:15 100 10 gusting 18 7.0 7.0
2020-Jul-03 12:10 100 9 gusting 15 6.1 7.0
2020-Jul-03 12:05 110 9 6.1 7.0
2020-Jul-03 12:00 140 7 4.3 7.0 Mist.
2020-Jul-03 11:56 120 8 gusting 18 3.5 7.2 Mist.
2020-Jul-03 11:55 120 8 3.5 7.0 Mist.
2020-Jul-03 11:50 130 11 4.3 7.0 Mist.
2020-Jul-03 11:45 130 9 5.2 7.0 Mist.
2020-Jul-03 11:40 110 10 gusting 18 6.1 7.0
2020-Jul-03 11:35 120 10 7.0 7.0
2020-Jul-03 11:30 110 16 7.0 7.0
2020-Jul-03 11:28 120 12 6.9 7.0
2020-Jul-03 11:25 110 11 gusting 16 6.1 7.0
2020-Jul-03 11:20 110 10 6.1 7.0
2020-Jul-03 11:15 140 9 7.0 7.0
2020-Jul-03 11:10 120 9 8.7 8.0
2020-Jul-03 11:05 140 7 8.7 7.0
2020-Jul-03 11:00 120 8 8.7 8.0
2020-Jul-03 10:56 130 6 8.7 7.8
2020-Jul-03 10:55 130 8 8.7 8.0
2020-Jul-03 10:50 150 7 8.7 8.0 Light rain.
2020-Jul-03 10:45 190 4 8.7 7.0 Light rain.
2020-Jul-03 10:40 170 3 8.7 7.0
2020-Jul-03 10:35 170 6 8.7 7.0
2020-Jul-03 10:30 170 6 8.7 8.0
2020-Jul-03 10:28 150 7 8.7 8.0
2020-Jul-03 10:25 140 10 8.7 8.0
2020-Jul-03 10:20 180 14 8.7 8.0
2020-Jul-03 10:15 210 17 8.7 8.0
2020-Jul-03 10:10 210 20 8.7 8.0
2020-Jul-03 10:09 210 20 8.7 8.0 Light rain.
2020-Jul-03 10:05 160 8 8.7 8.0 Light rain.
2020-Jul-03 10:00 8.7 8.0 Light rain.
2020-Jul-03 09:56 140 7 gusting 14 8.7 7.8 Light rain.
2020-Jul-03 09:55 130 11 8.7 8.0
2020-Jul-03 09:50 180 11 8.7 8.0
2020-Jul-03 09:45 160 11 8.7 8.0
2020-Jul-03 09:40 170 15 8.7 8.0
2020-Jul-03 09:35 160 15 8.7 8.0
2020-Jul-03 09:30 150 18 8.7 8.0
2020-Jul-03 09:26 160 15 8.7 8.0
2020-Jul-03 09:25 150 15 8.7 8.0
2020-Jul-03 09:20 160 17 8.7 8.0
2020-Jul-03 09:15 180 18 8.7 8.0
2020-Jul-03 09:10 180 18 8.7 8.0
2020-Jul-03 09:05 170 20 8.7 8.0
2020-Jul-03 09:00 160 19 8.7 8.0
2020-Jul-03 08:56 170 18 gusting 22 8.7 7.8
2020-Jul-03 08:55 170 18 8.7 8.0
2020-Jul-03 08:50 160 19 8.7 8.0
2020-Jul-03 08:45 180 18 8.7 8.0
2020-Jul-03 08:42 170 13 gusting 21 8.7 8.0
2020-Jul-03 08:40 150 15 8.7 8.0
2020-Jul-03 08:35 150 20 8.7 8.0
2020-Jul-03 08:30 160 18 8.7 8.0
2020-Jul-03 08:25 160 15 8.7 8.0
2020-Jul-03 08:20 150 14 8.7 8.0
2020-Jul-03 08:15 130 14 8.7 8.0
2020-Jul-03 08:10 150 12 gusting 17 8.7 8.0
2020-Jul-03 08:05 150 10 gusting 15 8.7 8.0
2020-Jul-03 08:00 150 14 8.7 8.0
2020-Jul-03 07:56 150 17 8.7 7.8
2020-Jul-03 07:55 150 15 8.7 8.0
2020-Jul-03 07:50 160 14 8.7 8.0
2020-Jul-03 07:45 160 16 8.7 8.0
2020-Jul-03 07:40 150 17 8.7 8.0
2020-Jul-03 07:35 150 15 8.7 8.0
2020-Jul-03 07:30 160 17 8.7 8.0
2020-Jul-03 07:25 170 15 8.7 8.0
2020-Jul-03 07:20 170 8 8.7 8.0
2020-Jul-03 07:15 160 7 8.7 8.0
2020-Jul-03 07:10 170 11 8.7 8.0
2020-Jul-03 07:05 160 9 8.7 8.0
2020-Jul-03 07:00 160 10 8.7 8.0
2020-Jul-03 06:56 170 11 8.7 8.3
2020-Jul-03 06:55 160 11 8.7 8.0
2020-Jul-03 06:50 170 11 8.7 8.0
2020-Jul-03 06:45 160 14 8.7 8.0
2020-Jul-03 06:40 170 15 8.7 8.0
2020-Jul-03 06:35 160 14 8.7 8.0
2020-Jul-03 06:30 160 9 8.7 9.0
2020-Jul-03 06:25 180 8 8.7 9.0
2020-Jul-03 06:20 160 10 8.7 9.0
2020-Jul-03 06:15 180 9 8.7 9.0
2020-Jul-03 06:10 160 13 8.7 9.0
2020-Jul-03 06:05 170 12 8.7 9.0
2020-Jul-03 06:00 170 11 8.7 9.0